Northeast Philadelphia, PA

8:52 PM EDT on October 16, 2019 (GMT -0400)
Northeast Philadelphia

Weather History for KPNE - August, 2019

Change the Weather History Date:

Thursday, August 29, 2019

  Actual Average Record
Temperature  
Mean Temperature 74 °F -  
Max Temperature 84 °F 80 °F 97 °F (2018)
Min Temperature 64 °F 62 °F 57 °F (2011)
Cooling Degree Days 9    
Growing Degree Days 24 (Base 50)    
Moisture  
Dew Point 56 °F    
Average Humidity 57    
Maximum Humidity 81    
Minimum Humidity 33    
Precipitation  
Precipitation 0.00 in - - ()
Sea Level Pressure  
Sea Level Pressure 29.94 in    
Wind  
Wind Speed 7 mph ()    
Max Wind Speed 17 mph    
Max Gust Speed 25 mph    
Visibility 10.0 miles    
Events      
Averages and records for this station are not official NWS values.
T = Trace of Precipitation, MM = Missing Value Source: Averaged Metar Reports

Daily Weather History Graph

Daily Weather History Graph

Search for Another Location

Airport or City:

Astronomy

Aug. 29, 2019 Rise Set
Actual Time 6:24 AM EDT 7:36 PM EDT
Civil Twilight 5:56 AM EDT 8:04 PM EDT
Nautical Twilight 5:23 AM EDT 8:37 PM EDT
Astronomical Twilight 4:47 AM EDT 9:12 PM EDT
Moon 5:06 AM EDT (8/29) 7:31 PM EDT (8/29)
Length of Visible Light 14h 07m
Length of Day
13h 12m
Waning Crescent, 1% of the Moon is Illuminated
Aug 29
Waning Crescent
Aug 30
New
Sep 5
First Quarter
Sep 14
Full
Sep 21
Last Quarter

Hourly Weather History & Observations

Time (EDT) Temp. Heat Index Dew Point Humidity Pressure Visibility Wind Dir Wind Speed Gust Speed Precip Events Conditions
12:54 AM 72.0 °F - 64.9 °F 78% 29.87 in 10.0 mi NNW 6.9 mph - N/A   Clear
1:54 AM 70.0 °F - 63.0 °F 78% 29.86 in 10.0 mi NW 4.6 mph - N/A   Clear
2:54 AM 68.0 °F - 62.1 °F 81% 29.87 in 10.0 mi WNW 4.6 mph - N/A   Clear
3:54 AM 66.9 °F - 60.1 °F 79% 29.88 in 10.0 mi NW 5.8 mph - N/A   Clear
4:54 AM 66.0 °F - 59.0 °F 78% 29.88 in 10.0 mi NW 8.1 mph - N/A   Clear
5:54 AM 64.9 °F - 57.9 °F 78% 29.89 in 10.0 mi NW 6.9 mph - N/A   Clear
6:54 AM 66.0 °F - 57.9 °F 75% 29.91 in 10.0 mi NW 6.9 mph - N/A   Clear
7:54 AM 69.1 °F - 60.1 °F 73% 29.91 in 10.0 mi WNW 4.6 mph - N/A   Clear
8:54 AM 73.0 °F - 59.0 °F 61% 29.92 in 10.0 mi NW 10.4 mph 20.7 mph N/A   Clear
10:54 AM 80.1 °F 80.6 °F 57.9 °F 47% 29.96 in 10.0 mi NW 10.4 mph - N/A   Clear
11:54 AM 82.0 °F 81.2 °F 53.1 °F 37% 29.96 in 10.0 mi NW 13.8 mph 20.7 mph N/A   Clear
12:54 PM 82.9 °F 81.9 °F 54.0 °F 37% 29.95 in 10.0 mi NW 12.7 mph 19.6 mph N/A   Clear
1:54 PM 82.9 °F 82.0 °F 55.0 °F 38% 29.94 in 10.0 mi WNW 8.1 mph - N/A   Partly Cloudy
2:54 PM 84.0 °F - 52.0 °F 33% 29.94 in 10.0 mi WNW 17.3 mph 25.3 mph N/A   Clear
3:54 PM 84.0 °F - 52.0 °F 33% 29.93 in 10.0 mi NW 16.1 mph 23.0 mph N/A   Clear
4:54 PM 82.9 °F - 51.1 °F 33% 29.94 in 10.0 mi WNW 12.7 mph - N/A   Clear
5:54 PM 82.0 °F - 52.0 °F 35% 29.94 in 10.0 mi WNW 11.5 mph - N/A   Clear
6:54 PM 79.0 °F - 51.1 °F 38% 29.96 in 10.0 mi NW 9.2 mph - N/A   Clear
7:54 PM 75.9 °F - 52.0 °F 43% 29.99 in 10.0 mi WNW 6.9 mph - N/A   Clear
8:54 PM 73.9 °F - 53.1 °F 48% 30.01 in 10.0 mi WSW 3.5 mph - N/A   Clear
9:54 PM 69.1 °F - 55.9 °F 63% 30.02 in 10.0 mi Calm Calm - N/A   Clear
10:54 PM 68.0 °F - 55.9 °F 65% 30.02 in 10.0 mi Calm Calm - N/A   Clear
11:54 PM 66.0 °F - 57.0 °F 73% 30.02 in 10.0 mi Calm Calm - N/A   Clear